Regional Weather Roundup
Issued by NWS

Home | Current Version | Previous Version | Text Only | Print | Product List | Glossary On
Versions: 1 2 3 4 5 6 7 8 9 10 11 12 13 14 15 16 17 18 19 20 21 22 23 24 25 26 27 28 29 30 31 32 33 34 35 36 37 38 39 40 41 42 43 44 45 46 47 48 49 50
000
ASUS43 KTOP 230408
RWRKS

WEATHER ROUNDUP FOR KANSAS
NATIONAL WEATHER SERVICE GOODLAND KS
1000 PM CST SUN JAN 22 2017

NOTE:  "FAIR" INDICATES FEW OR NO CLOUDS BELOW 12,000 FEET WITH NO
SIGNIFICANT WEATHER AND/OR OBSTRUCTIONS TO VISIBILITY.

KSZ001>006-013>018-027>032-041>047-230500-
NORTHWEST KANSAS

CITY           SKY/WX    TMP DP  RH WIND       PRES   REMARKS
GOODLAND       CLEAR     28  23  81 W7        29.91F
HAYS           CLEAR     28  24  85 SW9       29.93R
HILL CITY      CLEAR     32  27  81 W7        29.93R
RUSSELL        CLEAR     31  25  78 W6        29.90S
$$

KSZ061>065-074>080-084>089-230500-
SOUTHWEST KANSAS

CITY           SKY/WX    TMP DP  RH WIND       PRES   REMARKS
DODGE CITY     CLEAR     33  25  72 W7        29.95S
ELKHART          N/A     35  19  52 NW1         N/A
GARDEN CITY    CLEAR     34  26  72 NW7       29.94F
GREAT BEND     CLEAR     31  26  82 SW6       29.94R
LIBERAL          N/A     30  19  64 W8        29.97S
PRATT          PTCLDY    30  25  82 W7        29.95S
$$

KSZ066>073-081>083-090>101-230500-
SOUTHEAST KANSAS

CITY           SKY/WX    TMP DP  RH WIND       PRES   REMARKS
CHANUTE        CLEAR     36  31  82 NW9       29.89R
COFFEYVILLE    CLEAR     36  31  82 NW9       29.91R
HUTCHINSON     CLEAR     30  26  85 W3        29.93R
MEDICINE LODGE   N/A     33  26  75 NW3       29.95R
NEWTON         CLEAR     30  28  92 N5        29.93R
PARSONS        CLEAR     35  31  85 NW7       29.90R
WICHITA INTL   CLEAR     35  29  78 N5        29.93R
WICHITA JABRA  CLEAR     32  30  92 N7        29.92R
WICHITA MCCONL CLEAR     34  30  83 N7        29.93R
WINFIELD       CLEAR     34  29  82 N7        29.93R
$$

KSZ007>012-019>026-033>040-048>060-102>105-230500-
NORTHEAST KANSAS

CITY           SKY/WX    TMP DP  RH WIND       PRES   REMARKS
CONCORDIA      CLEAR     36  31  82 SW3       29.90R
EMPORIA        CLEAR     30  29  96 NW7       29.90S
LAWRENCE       CLOUDY    36  34  92 NW9       29.89R
MANHATTAN      CLEAR     31  29  92 W5        29.92R
MARYSVILLE     FOG       30  28  93 CALM      29.89F VSB 3/4
OLATHE IND     CLOUDY    38  34  85 NW17      29.88R WCI  28
OLATHE EXE     CLOUDY    37  34  89 NW12      29.87R WCI  29
SALINA         CLEAR     30  28  92 W3        29.93R
TOPEKA BILLARD CLEAR     37  32  82 W9        29.90S
TOPEKA FORBES  CLEAR     35  31  85 NW9       29.89S
$$



USA.gov is the U.S. government's official web portal to all federal, state and local government web resources and services.